Location: Kimberly
(42.5380°N, 114.3640°W)
Time: 17:59:41
(UTC-06:00)

X-37B - Visible Passes

Search period start: 01 October 2022 00:00
Search period end: 11 October 2022 00:00
Orbit: 329 x 342 km, 45.0° (Epoch: 29 September)

Date Brightness Start Highest point End Pass type
(mag) Time Alt. Az. Time Alt. Az. Time Alt. Az.
01 Oct 3.8 05:06:34 13° ENE 05:06:34 13° ENE 05:06:58 10° ENE visible
01 Oct 0.6 06:37:48 17° WNW 06:39:50 62° N 06:42:42 10° E visible
02 Oct 2.9 05:26:13 23° ENE 05:26:13 23° ENE 05:27:32 10° E visible
02 Oct 0.3 06:57:28 10° WNW 07:00:19 75° SSW 07:03:11 10° ESE visible
03 Oct 1.5 05:45:56 44° ENE 05:45:56 44° ENE 05:48:07 10° E visible
04 Oct 0.2 06:05:44 76° SSW 06:05:44 76° SSW 06:08:37 10° ESE visible
05 Oct 1.2 06:25:38 31° SW 06:26:06 33° SSW 06:28:44 10° SE visible
06 Oct 2.4 06:45:39 14° SW 06:46:18 15° SW 06:48:00 10° S visible
